| time (UTC) | temp C | wind direction | speed KPH | gust KPH | rain 1hr cm | rain 24hr cm | rain mn cm | humidity % | barometer mb |
| 20260505234436 | 16 | 343 | 0.0 | 4.8 | 0.00 | 0.00 | 0.00 | 62 | 1014.9 |
| 20260505233934 | 16 | 343 | 0.0 | 4.8 | 0.00 | 0.00 | 0.00 | 62 | 1014.9 |
| 20260505233437 | 16 | 41 | 0.0 | 0.0 | 0.00 | 0.00 | 0.00 | 62 | 1015.0 |
| 20260505233207 | 16 | 42 | 0.0 | 4.8 | 0.00 | 0.00 | 0.00 | 62 | 1015.0 |
| 20260505232707 | 16 | 47 | 0.0 | 4.8 | 0.00 | 0.00 | 0.00 | 62 | 1015.0 |
| 20260505232205 | 16 | 332 | 0.0 | 0.0 | 0.00 | 0.00 | 0.00 | 61 | 1015.0 |
| 20260505231426 | 16 | 332 | 0.0 | 0.0 | 0.00 | 0.00 | 0.00 | 61 | 1015.0 |
| 20260505230924 | 16 | 332 | 0.0 | 0.0 | 0.00 | 0.00 | 0.00 | 62 | 1015.0 |
| 20260505230424 | 16 | 332 | 0.0 | 4.8 | 0.00 | 0.00 | 0.00 | 61 | 1015.0 |
| 20260505225920 | 16 | 332 | 0.0 | 4.8 | 0.00 | 0.00 | 0.00 | 61 | 1015.0 |
| 20260505225422 | 16 | 332 | 0.0 | 1.6 | 0.00 | 0.00 | 0.00 | 61 | 1015.0 |
| 20260505224921 | 16 | 332 | 0.0 | 0.0 | 0.00 | 0.00 | 0.00 | 60 | 1015.1 |
| 20260505224421 | 16 | 332 | 0.0 | 0.0 | 0.00 | 0.00 | 0.00 | 61 | 1015.1 |
| 20260505223921 | 16 | 332 | 0.0 | 0.0 | 0.00 | 0.00 | 0.00 | 60 | 1015.1 |
| 20260505223420 | 16 | 332 | 0.0 | 0.0 | 0.00 | 0.00 | 0.00 | 60 | 1015.2 |
| 20260505222920 | 17 | 332 | 0.0 | 0.0 | 0.00 | 0.00 | 0.00 | 60 | 1015.2 |
| 20260505222423 | 17 | 332 | 0.0 | 0.0 | 0.00 | 0.00 | 0.00 | 58 | 1015.2 |
| 20260505221923 | 17 | 333 | 0.0 | 0.0 | 0.00 | 0.00 | 0.00 | 60 | 1015.2 |
| 20260505221423 | 17 | 332 | 0.0 | 0.0 | 0.00 | 0.00 | 0.00 | 59 | 1015.2 |
| 20260505220907 | 17 | 332 | 0.0 | 8.0 | 0.00 | 0.00 | 0.00 | 59 | 1015.2 |
| 20260505220408 | 16 | 332 | 0.0 | 8.0 | 0.00 | 0.00 | 0.00 | 60 | 1015.3 |
| 20260505215910 | 16 | 340 | 0.0 | 0.0 | 0.00 | 0.00 | 0.00 | 60 | 1015.3 |
| 20260505215625 | 16 | 340 | 0.0 | 0.0 | 0.00 | 0.00 | 0.00 | 61 | 1015.3 |
| 20260505214854 | 16 | 340 | 0.0 | 0.0 | 0.00 | 0.00 | 0.00 | 62 | 1015.5 |
| 20260505214626 | 16 | 340 | 0.0 | 0.0 | 0.00 | 0.00 | 0.00 | 62 | 1015.5 |
| 20260505213854 | 16 | 340 | 0.0 | 8.0 | 0.00 | 0.00 | 0.00 | 63 | 1015.5 |
| 20260505213351 | 16 | 340 | 0.0 | 8.0 | 0.00 | 0.00 | 0.00 | 63 | 1015.7 |
| 20260505213123 | 16 | 0 | 0.0 | 0.0 | 0.00 | 0.00 | 0.00 | 63 | 1015.7 |
| 20260505212352 | 16 | 18 | 0.0 | 0.0 | 0.00 | 0.00 | 0.00 | 63 | 1015.7 |
| 20260505211851 | 16 | 16 | 0.0 | 0.0 | 0.00 | 0.00 | 0.00 | 63 | 1015.7 |
| 20260505211352 | 16 | 16 | 0.0 | 0.0 | 0.00 | 0.00 | 0.00 | 63 | 1015.7 |
| 20260505210851 | 16 | 16 | 0.0 | 0.0 | 0.00 | 0.00 | 0.00 | 64 | 1015.7 |
| 20260505210353 | 16 | 16 | 0.0 | 1.6 | 0.00 | 0.00 | 0.00 | 63 | 1015.5 |
| 20260505205352 | 16 | 16 | 0.0 | 0.0 | 0.00 | 0.00 | 0.00 | 63 | 1015.5 |
| 20260505204852 | 16 | 16 | 0.0 | 0.0 | 0.00 | 0.00 | 0.00 | 61 | 1015.6 |
| 20260505204352 | 16 | 10 | 0.0 | 1.6 | 0.00 | 0.00 | 0.00 | 61 | 1015.6 |
| 20260505203346 | 16 | 11 | 0.0 | 0.0 | 0.00 | 0.00 | 0.00 | 62 | 1015.7 |
| 20260505202340 | 16 | 11 | 0.0 | 0.0 | 0.00 | 0.00 | 0.00 | 64 | 1015.7 |
| 20260505201841 | 15 | 339 | 0.0 | 0.0 | 0.00 | 0.00 | 0.00 | 65 | 1015.8 |
| 20260505201339 | 15 | 339 | 0.0 | 0.0 | 0.00 | 0.00 | 0.00 | 65 | 1015.8 |
| 20260505200838 | 15 | 339 | 0.0 | 4.8 | 0.00 | 0.00 | 0.00 | 64 | 1015.8 |
| 20260505200333 | 15 | 339 | 0.0 | 4.8 | 0.00 | 0.00 | 0.00 | 64 | 1015.8 |
| 20260505195823 | 15 | 339 | 0.0 | 4.8 | 0.00 | 0.00 | 0.00 | 63 | 1015.8 |
| 20260505195327 | 15 | 339 | 0.0 | 0.0 | 0.00 | 0.00 | 0.00 | 65 | 1015.8 |
| 20260505194824 | 15 | 339 | 0.0 | 0.0 | 0.00 | 0.00 | 0.00 | 65 | 1016.1 |
| 20260505194326 | 15 | 339 | 0.0 | 0.0 | 0.00 | 0.00 | 0.00 | 65 | 1016.1 |
| 20260505193825 | 15 | 339 | 0.0 | 0.0 | 0.00 | 0.00 | 0.00 | 65 | 1016.1 |
| 20260505193556 | 15 | 339 | 0.0 | 4.8 | 0.00 | 0.00 | 0.00 | 65 | 1016.1 |
| 20260505192825 | 15 | 339 | 0.0 | 4.8 | 0.00 | 0.00 | 0.00 | 65 | 1016.1 |
| 20260505192545 | 15 | 342 | 0.0 | 0.0 | 0.00 | 0.00 | 0.00 | 65 | 1016.1 |
| 20260505191809 | 15 | 349 | 0.0 | 4.8 | 0.00 | 0.00 | 0.00 | 66 | 1016.0 |
| 20260505191541 | 15 | 349 | 0.0 | 4.8 | 0.00 | 0.00 | 0.00 | 66 | 1016.0 |
| 20260505190802 | 15 | 52 | 0.0 | 1.6 | 0.00 | 0.00 | 0.00 | 68 | 1016.0 |
| 20260505190256 | 15 | 52 | 0.0 | 1.6 | 0.00 | 0.00 | 0.00 | 68 | 1016.0 |
| 20260505185754 | 15 | 52 | 0.0 | 1.6 | 0.00 | 0.00 | 0.00 | 69 | 1016.0 |
| 20260505185526 | 15 | 52 | 0.0 | 1.6 | 0.00 | 0.00 | 0.00 | 66 | 1016.0 |
| 20260505184756 | 15 | 313 | 0.0 | 3.2 | 0.00 | 0.00 | 0.00 | 66 | 1015.9 |
| 20260505184256 | 15 | 80 | 0.0 | 3.2 | 0.00 | 0.00 | 0.00 | 66 | 1015.9 |
| 20260505183755 | 15 | 302 | 0.0 | 9.7 | 0.00 | 0.00 | 0.00 | 65 | 1015.9 |
| 20260505183254 | 15 | 304 | 0.0 | 9.7 | 0.00 | 0.00 | 0.00 | 65 | 1015.9 |
| 20260505182756 | 15 | 305 | 1.6 | 12.9 | 0.00 | 0.00 | 0.00 | 65 | 1015.9 |
| 20260505182254 | 15 | 6 | 1.6 | 12.9 | 0.00 | 0.00 | 0.00 | 65 | 1015.9 |
| 20260505181754 | 15 | 333 | 0.0 | 8.0 | 0.00 | 0.00 | 0.00 | 64 | 1015.8 |
| 20260505181525 | 15 | 343 | 0.0 | 4.8 | 0.00 | 0.00 | 0.00 | 65 | 1015.8 |
| 20260505180754 | 14 | 301 | 0.0 | 1.6 | 0.00 | 0.00 | 0.00 | 64 | 1015.8 |
| 20260505180254 | 14 | 301 | 0.0 | 0.0 | 0.00 | 0.00 | 0.00 | 65 | 1015.7 |
| 20260505175755 | 14 | 301 | 0.0 | 4.8 | 0.00 | 0.00 | 0.00 | 64 | 1015.7 |
| 20260505175256 | 14 | 301 | 0.0 | 4.8 | 0.00 | 0.00 | 0.00 | 64 | 1015.7 |
| 20260505174755 | 14 | 301 | 0.0 | 0.0 | 0.00 | 0.00 | 0.00 | 65 | 1015.4 |
| 20260505174255 | 14 | 301 | 0.0 | 0.0 | 0.00 | 0.00 | 0.00 | 64 | 1015.4 |
| 20260505173748 | 14 | 301 | 0.0 | 0.0 | 0.00 | 0.00 | 0.00 | 64 | 1015.4 |
| 20260505173243 | 14 | 301 | 0.0 | 0.0 | 0.00 | 0.00 | 0.00 | 65 | 1015.3 |
| 20260505173015 | 14 | 301 | 0.0 | 0.0 | 0.00 | 0.00 | 0.00 | 65 | 1015.3 |
| 20260505172244 | 14 | 301 | 0.0 | 0.0 | 0.00 | 0.00 | 0.00 | 65 | 1015.3 |
| 20260505172011 | 13 | 299 | 0.0 | 3.2 | 0.00 | 0.00 | 0.00 | 65 | 1015.2 |
| 20260505171228 | 14 | 299 | 0.0 | 3.2 | 0.00 | 0.00 | 0.00 | 65 | 1015.3 |
| 20260505170727 | 14 | 299 | 0.0 | 0.0 | 0.00 | 0.00 | 0.00 | 65 | 1015.3 |
| 20260505170500 | 14 | 299 | 0.0 | 0.0 | 0.00 | 0.00 | 0.00 | 65 | 1015.3 |
| 20260505165217 | 13 | 299 | 0.0 | 0.0 | 0.00 | 0.00 | 0.00 | 66 | 1015.2 |
| 20260505164718 | 13 | 299 | 0.0 | 0.0 | 0.00 | 0.00 | 0.00 | 66 | 1015.2 |
| 20260505164219 | 13 | 299 | 0.0 | 0.0 | 0.00 | 0.00 | 0.00 | 66 | 1015.2 |
| 20260505163713 | 13 | 299 | 0.0 | 0.0 | 0.00 | 0.00 | 0.00 | 66 | 1015.1 |
| 20260505163213 | 13 | 299 | 0.0 | 0.0 | 0.00 | 0.00 | 0.00 | 66 | 1015.1 |
| 20260505162713 | 13 | 299 | 0.0 | 0.0 | 0.00 | 0.00 | 0.00 | 66 | 1015.1 |
| 20260505162443 | 13 | 299 | 0.0 | 0.0 | 0.00 | 0.00 | 0.00 | 67 | 1014.9 |
| 20260505161711 | 13 | 322 | 0.0 | 0.0 | 0.00 | 0.00 | 0.00 | 67 | 1014.9 |
| 20260505161202 | 13 | 322 | 0.0 | 0.0 | 0.00 | 0.00 | 0.00 | 68 | 1014.9 |
| 20260505160658 | 13 | 322 | 0.0 | 0.0 | 0.00 | 0.00 | 0.00 | 67 | 1015.1 |
| 20260505160200 | 13 | 322 | 0.0 | 0.0 | 0.00 | 0.00 | 0.00 | 67 | 1015.1 |
| 20260505153143 | 12 | 0 | 0.0 | 0.0 | 0.00 | 0.00 | 0.00 | 70 | 1014.9 |
| 20260505152644 | 12 | 288 | 0.0 | 0.0 | 0.00 | 0.00 | 0.00 | 70 | 1014.9 |
| 20260505152144 | 12 | 288 | 0.0 | 0.0 | 0.00 | 0.00 | 0.00 | 70 | 1014.7 |
| 20260505151656 | 12 | 288 | 0.0 | 0.0 | 0.00 | 0.00 | 0.00 | 70 | 1014.7 |
| 20260505151145 | 12 | 288 | 0.0 | 0.0 | 0.00 | 0.00 | 0.00 | 70 | 1014.7 |
| 20260505150644 | 12 | 288 | 0.0 | 0.0 | 0.00 | 0.00 | 0.00 | 71 | 1014.7 |
| 20260505150142 | 12 | 288 | 0.0 | 0.0 | 0.00 | 0.00 | 0.00 | 71 | 1014.7 |
| 20260505140631 | 12 | 333 | 0.0 | 0.0 | 0.00 | 0.00 | 0.00 | 71 | 1014.2 |
| 20260505140116 | 12 | 333 | 0.0 | 0.0 | 0.00 | 0.00 | 0.00 | 72 | 1014.2 |
| 20260505124603 | 11 | 333 | 0.0 | 0.0 | 0.00 | 0.00 | 0.00 | 72 | 1014.1 |
| 20260505124103 | 11 | 333 | 0.0 | 0.0 | 0.00 | 0.00 | 0.00 | 72 | 1014.1 |
| 20260505123603 | 11 | 333 | 0.0 | 0.0 | 0.00 | 0.00 | 0.00 | 71 | 1014.2 |
| 20260505123104 | 12 | 333 | 0.0 | 0.0 | 0.00 | 0.00 | 0.00 | 71 | 1014.2 |
| 20260505122833 | 12 | 333 | 0.0 | 0.0 | 0.00 | 0.00 | 0.00 | 70 | 1014.2 |
| 20260505122117 | 12 | 332 | 0.0 | 0.0 | 0.00 | 0.00 | 0.00 | 70 | 1014.4 |
| 20260505121602 | 12 | 333 | 0.0 | 0.0 | 0.00 | 0.00 | 0.00 | 70 | 1014.4 |
| 20260505121102 | 12 | 333 | 0.0 | 0.0 | 0.00 | 0.00 | 0.00 | 70 | 1014.4 |
| 20260505120604 | 12 | 333 | 0.0 | 0.0 | 0.00 | 0.00 | 0.00 | 70 | 1014.4 |
| 20260505120109 | 12 | 333 | 0.0 | 0.0 | 0.00 | 0.00 | 0.00 | 70 | 1014.4 |
| 20260505115602 | 12 | 333 | 0.0 | 0.0 | 0.00 | 0.00 | 0.00 | 70 | 1014.4 |
| 20260505115103 | 12 | 335 | 0.0 | 0.0 | 0.00 | 0.00 | 0.00 | 69 | 1014.3 |
| 20260505114603 | 12 | 335 | 0.0 | 0.0 | 0.00 | 0.00 | 0.00 | 69 | 1014.3 |
| 20260505113548 | 12 | 335 | 0.0 | 0.0 | 0.00 | 0.00 | 0.00 | 68 | 1014.2 |
| 20260505113049 | 12 | 335 | 0.0 | 0.0 | 0.00 | 0.00 | 0.00 | 68 | 1014.2 |
| 20260505112820 | 12 | 335 | 0.0 | 0.0 | 0.00 | 0.00 | 0.00 | 68 | 1014.2 |
| 20260505112049 | 12 | 335 | 0.0 | 0.0 | 0.00 | 0.00 | 0.00 | 68 | 1014.3 |
| 20260505111819 | 12 | 335 | 0.0 | 0.0 | 0.00 | 0.00 | 0.00 | 68 | 1014.3 |
| 20260505111045 | 12 | 335 | 0.0 | 0.0 | 0.00 | 0.00 | 0.00 | 67 | 1014.3 |
| 20260505110535 | 12 | 335 | 0.0 | 0.0 | 0.00 | 0.00 | 0.00 | 67 | 1014.2 |
| 20260505102004 | 12 | 335 | 0.0 | 0.0 | 0.00 | 0.00 | 0.00 | 64 | 1014.3 |
| 20260505101504 | 12 | 335 | 0.0 | 0.0 | 0.00 | 0.00 | 0.00 | 63 | 1014.3 |
| 20260505101005 | 12 | 335 | 0.0 | 0.0 | 0.00 | 0.00 | 0.00 | 63 | 1014.3 |
| 20260505100517 | 12 | 335 | 0.0 | 0.0 | 0.00 | 0.00 | 0.00 | 63 | 1014.3 |
| 20260505100235 | 12 | 335 | 0.0 | 1.6 | 0.00 | 0.00 | 0.00 | 63 | 1014.3 |
| 20260505095509 | 12 | 335 | 0.0 | 1.6 | 0.00 | 0.00 | 0.00 | 63 | 1014.3 |
| 20260505095008 | 12 | 335 | 0.0 | 0.0 | 0.00 | 0.00 | 0.00 | 64 | 1014.5 |
| 20260505094506 | 12 | 335 | 0.0 | 0.0 | 0.00 | 0.00 | 0.00 | 64 | 1014.5 |
| 20260505094005 | 12 | 335 | 0.0 | 4.8 | 0.00 | 0.00 | 0.00 | 64 | 1014.5 |
| 20260505093506 | 12 | 312 | 0.0 | 4.8 | 0.00 | 0.00 | 0.00 | 65 | 1014.4 |
| 20260505093005 | 12 | 315 | 0.0 | 0.0 | 0.00 | 0.00 | 0.00 | 66 | 1014.4 |
| 20260505092507 | 12 | 315 | 0.0 | 0.0 | 0.00 | 0.00 | 0.00 | 66 | 1014.4 |
| 20260505092006 | 12 | 315 | 0.0 | 0.0 | 0.00 | 0.00 | 0.00 | 67 | 1014.6 |
| 20260505091505 | 12 | 315 | 0.0 | 4.8 | 0.00 | 0.00 | 0.00 | 67 | 1014.6 |
| 20260505091005 | 12 | 315 | 0.0 | 4.8 | 0.00 | 0.00 | 0.00 | 67 | 1014.6 |
| 20260505090506 | 12 | 298 | 0.0 | 0.0 | 0.00 | 0.00 | 0.00 | 67 | 1014.8 |
| 20260505090003 | 12 | 298 | 0.0 | 1.6 | 0.00 | 0.00 | 0.00 | 66 | 1014.8 |
| 20260505085505 | 12 | 299 | 0.0 | 1.6 | 0.00 | 0.00 | 0.00 | 66 | 1014.8 |
| 20260505085005 | 12 | 299 | 0.0 | 9.7 | 0.00 | 0.00 | 0.00 | 65 | 1014.9 |
| 20260505084453 | 12 | 299 | 0.0 | 9.7 | 0.00 | 0.00 | 0.00 | 65 | 1014.9 |
| 20260505083952 | 12 | 298 | 0.0 | 8.0 | 0.00 | 0.00 | 0.00 | 65 | 1014.9 |
| 20260505083452 | 12 | 304 | 0.0 | 8.0 | 0.00 | 0.00 | 0.00 | 65 | 1014.9 |
| 20260505082948 | 12 | 301 | 0.0 | 9.7 | 0.00 | 0.00 | 0.00 | 65 | 1014.9 |
| 20260505082443 | 13 | 305 | 1.6 | 11.3 | 0.00 | 0.00 | 0.00 | 65 | 1014.9 |
| 20260505081945 | 13 | 305 | 1.6 | 11.3 | 0.00 | 0.00 | 0.00 | 66 | 1014.9 |
| 20260505081710 | 13 | 282 | 0.0 | 4.8 | 0.00 | 0.00 | 0.00 | 66 | 1014.9 |
| 20260505080937 | 13 | 288 | 1.6 | 6.4 | 0.00 | 0.00 | 0.00 | 68 | 1014.9 |
| 20260505080440 | 13 | 277 | 0.0 | 8.0 | 0.00 | 0.00 | 0.00 | 69 | 1015.0 |
| 20260505075936 | 13 | 284 | 1.6 | 8.0 | 0.00 | 0.00 | 0.00 | 70 | 1015.0 |
| 20260505075438 | 13 | 311 | 1.6 | 8.0 | 0.00 | 0.00 | 0.00 | 70 | 1015.0 |
| 20260505074937 | 13 | 350 | 0.0 | 8.0 | 0.00 | 0.00 | 0.00 | 70 | 1014.8 |
| 20260505074429 | 13 | 281 | 0.0 | 8.0 | 0.00 | 0.00 | 0.00 | 70 | 1014.8 |
| 20260505073926 | 13 | 271 | 0.0 | 8.0 | 0.00 | 0.00 | 0.00 | 70 | 1014.8 |
| 20260505073426 | 13 | 302 | 0.0 | 9.7 | 0.00 | 0.00 | 0.00 | 70 | 1014.8 |
| 20260505072928 | 13 | 299 | 0.0 | 9.7 | 0.00 | 0.00 | 0.00 | 71 | 1014.8 |
| 20260505072410 | 13 | 308 | 0.0 | 0.0 | 0.00 | 0.00 | 0.00 | 72 | 1014.8 |
| 20260505071908 | 13 | 309 | 0.0 | 0.0 | 0.00 | 0.00 | 0.00 | 71 | 1014.7 |
| 20260505071406 | 13 | 306 | 0.0 | 0.0 | 0.00 | 0.00 | 0.00 | 71 | 1014.7 |
| 20260505070907 | 13 | 306 | 0.0 | 0.0 | 0.00 | 0.00 | 0.00 | 71 | 1014.7 |
| 20260505070411 | 13 | 306 | 0.0 | 3.2 | 0.00 | 0.00 | 0.00 | 71 | 1014.6 |
| 20260505065638 | 13 | 309 | 0.0 | 1.6 | 0.00 | 0.00 | 0.00 | 71 | 1014.6 |
| 20260505064907 | 13 | 309 | 0.0 | 1.6 | 0.00 | 0.00 | 0.00 | 71 | 1014.6 |
| 20260505064407 | 13 | 315 | 0.0 | 0.0 | 0.00 | 0.00 | 0.00 | 70 | 1014.6 |
| 20260505064138 | 13 | 315 | 0.0 | 4.8 | 0.00 | 0.00 | 0.00 | 70 | 1014.6 |
| 20260505063405 | 13 | 318 | 0.0 | 4.8 | 0.00 | 0.00 | 0.00 | 70 | 1014.5 |
| 20260505062901 | 13 | 315 | 0.0 | 4.8 | 0.00 | 0.00 | 0.00 | 70 | 1014.5 |
| 20260505062354 | 13 | 326 | 0.0 | 1.6 | 0.00 | 0.00 | 0.00 | 70 | 1014.5 |
| 20260505061853 | 13 | 289 | 0.0 | 4.8 | 0.00 | 0.00 | 0.00 | 70 | 1014.4 |
| 20260505061354 | 13 | 289 | 0.0 | 4.8 | 0.00 | 0.00 | 0.00 | 70 | 1014.4 |
| 20260505060854 | 13 | 289 | 0.0 | 0.0 | 0.00 | 0.00 | 0.00 | 71 | 1014.4 |
| 20260505060353 | 13 | 289 | 0.0 | 1.6 | 0.00 | 0.00 | 0.00 | 70 | 1014.5 |
| 20260505055856 | 13 | 289 | 0.0 | 1.6 | 0.00 | 0.00 | 0.00 | 70 | 1014.5 |
| 20260505055356 | 13 | 289 | 0.0 | 0.0 | 0.00 | 0.00 | 0.00 | 70 | 1014.5 |
| 20260505055125 | 13 | 288 | 0.0 | 0.0 | 0.00 | 0.00 | 0.00 | 69 | 1014.7 |
| 20260505054354 | 13 | 288 | 0.0 | 0.0 | 0.00 | 0.00 | 0.00 | 69 | 1014.7 |
| 20260505053854 | 13 | 288 | 0.0 | 0.0 | 0.00 | 0.00 | 0.00 | 68 | 1014.8 |
| 20260505053344 | 13 | 322 | 0.0 | 0.0 | 0.00 | 0.00 | 0.00 | 68 | 1015.0 |
| 20260505052842 | 13 | 322 | 0.0 | 4.8 | 0.00 | 0.00 | 0.00 | 68 | 1015.0 |
| 20260505052341 | 13 | 323 | 0.0 | 4.8 | 0.00 | 0.00 | 0.00 | 67 | 1015.0 |
| 20260505051840 | 13 | 316 | 0.0 | 1.6 | 0.00 | 0.00 | 0.00 | 67 | 1015.0 |
| 20260505051340 | 14 | 322 | 0.0 | 8.0 | 0.00 | 0.00 | 0.00 | 67 | 1015.0 |
| 20260505050853 | 14 | 305 | 0.0 | 8.0 | 0.00 | 0.00 | 0.00 | 67 | 1015.0 |
| 20260505050339 | 14 | 311 | 1.6 | 9.7 | 0.00 | 0.00 | 0.00 | 66 | 1014.9 |
| 20260505041328 | 15 | 285 | 0.0 | 3.2 | 0.00 | 0.00 | 0.00 | 64 | 1014.5 |
| 20260505041059 | 15 | 285 | 0.0 | 8.0 | 0.00 | 0.00 | 0.00 | 64 | 1014.5 |
| 20260505040326 | 15 | 285 | 1.6 | 12.9 | 0.00 | 0.00 | 0.00 | 63 | 1014.2 |
| 20260505040043 | 15 | 329 | 1.6 | 12.9 | 0.00 | 0.00 | 0.00 | 63 | 1014.2 |
| 20260505035312 | 15 | 326 | 0.0 | 8.0 | 0.00 | 0.00 | 0.00 | 63 | 1014.2 |
| 20260505034813 | 15 | 301 | 0.0 | 4.8 | 0.00 | 0.00 | 0.00 | 63 | 1014.0 |
| 20260505034311 | 15 | 298 | 0.0 | 4.8 | 0.00 | 0.00 | 0.00 | 63 | 1014.0 |
| 20260505034041 | 15 | 298 | 0.0 | 4.8 | 0.00 | 0.00 | 0.00 | 62 | 1014.0 |
| 20260505033312 | 15 | 301 | 0.0 | 3.2 | 0.00 | 0.00 | 0.00 | 62 | 1013.8 |
| 20260505033033 | 15 | 299 | 0.0 | 4.8 | 0.00 | 0.00 | 0.00 | 61 | 1013.8 |
| 20260505032258 | 15 | 306 | 0.0 | 4.8 | 0.00 | 0.00 | 0.00 | 61 | 1013.8 |
| 20260505031810 | 15 | 301 | 0.0 | 8.0 | 0.00 | 0.00 | 0.00 | 61 | 1013.8 |
| 20260505031530 | 15 | 301 | 1.6 | 9.7 | 0.00 | 0.00 | 0.00 | 60 | 1013.8 |
| 20260505030759 | 15 | 320 | 1.6 | 11.3 | 0.00 | 0.00 | 0.00 | 60 | 1013.8 |
| 20260505030258 | 15 | 315 | 0.0 | 11.3 | 0.00 | 0.00 | 0.00 | 60 | 1013.9 |
| 20260505025755 | 15 | 288 | 0.0 | 4.8 | 0.00 | 0.00 | 0.00 | 61 | 1013.9 |
| 20260505025526 | 15 | 287 | 0.0 | 3.2 | 0.00 | 0.00 | 0.00 | 60 | 1013.9 |
| 20260505024754 | 15 | 284 | 0.0 | 3.2 | 0.00 | 0.00 | 0.00 | 60 | 1013.8 |
| 20260505024245 | 15 | 282 | 1.6 | 9.7 | 0.00 | 0.00 | 0.00 | 60 | 1013.8 |
| 20260505023743 | 15 | 271 | 1.6 | 9.7 | 0.00 | 0.00 | 0.00 | 59 | 1013.8 |
| 20260505023515 | 15 | 313 | 0.0 | 8.0 | 0.00 | 0.00 | 0.00 | 58 | 1013.9 |
| 20260505022730 | 16 | 308 | 0.0 | 8.0 | 0.00 | 0.00 | 0.00 | 58 | 1013.9 |
| 20260505022228 | 16 | 305 | 0.0 | 1.6 | 0.00 | 0.00 | 0.00 | 56 | 1013.9 |
| 20260505021727 | 16 | 304 | 0.0 | 1.6 | 0.00 | 0.00 | 0.00 | 56 | 1013.8 |
| 20260505021216 | 16 | 301 | 0.0 | 12.9 | 0.00 | 0.00 | 0.00 | 55 | 1013.8 |
| 20260505020211 | 16 | 350 | 0.0 | 4.8 | 0.00 | 0.00 | 0.00 | 54 | 1013.7 |
| 20260505015709 | 16 | 342 | 0.0 | 4.8 | 0.00 | 0.00 | 0.00 | 55 | 1013.7 |
| 20260505015209 | 16 | 45 | 0.0 | 8.0 | 0.00 | 0.00 | 0.00 | 54 | 1013.7 |
| 20260505014710 | 16 | 311 | 0.0 | 11.3 | 0.00 | 0.00 | 0.00 | 54 | 1013.7 |
| 20260505014209 | 16 | 305 | 0.0 | 11.3 | 0.00 | 0.00 | 0.00 | 55 | 1013.7 |
| 20260505013941 | 16 | 309 | 0.0 | 8.0 | 0.00 | 0.00 | 0.00 | 55 | 1013.8 |
| 20260505013443 | 16 | 281 | 1.6 | 12.9 | 0.00 | 0.00 | 0.00 | 54 | 1013.8 |
| 20260505012711 | 16 | 322 | 1.6 | 12.9 | 0.00 | 0.00 | 0.00 | 54 | 1013.8 |
| 20260505012209 | 16 | 315 | 1.6 | 12.9 | 0.00 | 0.00 | 0.00 | 55 | 1013.9 |
| 20260505011941 | 16 | 298 | 1.6 | 12.9 | 0.00 | 0.00 | 0.00 | 54 | 1013.9 |
| 20260505011211 | 16 | 308 | 0.0 | 9.7 | 0.00 | 0.00 | 0.00 | 54 | 1013.9 |
| 20260505010709 | 17 | 299 | 1.6 | 12.9 | 0.00 | 0.00 | 0.00 | 54 | 1014.0 |
| 20260505010210 | 17 | 316 | 1.6 | 12.9 | 0.00 | 0.00 | 0.00 | 54 | 1014.0 |
| 20260505005710 | 17 | 353 | 0.0 | 1.6 | 0.00 | 0.00 | 0.00 | 54 | 1014.0 |
| 20260505005210 | 17 | 294 | 0.0 | 3.2 | 0.00 | 0.00 | 0.00 | 54 | 1014.2 |
| 20260505004710 | 17 | 282 | 0.0 | 8.0 | 0.00 | 0.00 | 0.00 | 54 | 1014.2 |
| 20260505004206 | 17 | 305 | 0.0 | 8.0 | 0.00 | 0.00 | 0.00 | 53 | 1014.2 |
| 20260505003206 | 17 | 14 | 0.0 | 11.3 | 0.00 | 0.00 | 0.00 | 52 | 1014.1 |
| 20260505002707 | 17 | 339 | 1.6 | 11.3 | 0.00 | 0.00 | 0.00 | 51 | 1014.1 |
| 20260505002207 | 18 | 312 | 1.6 | 17.7 | 0.00 | 0.00 | 0.00 | 50 | 1013.9 |
| 20260505001709 | 18 | 352 | 1.6 | 17.7 | 0.00 | 0.00 | 0.00 | 49 | 1013.9 |
| 20260505001207 | 18 | 322 | 1.6 | 12.9 | 0.00 | 0.00 | 0.00 | 48 | 1013.9 |
| 20260505000709 | 18 | 299 | 1.6 | 12.9 | 0.00 | 0.00 | 0.00 | 50 | 1013.8 |
| 20260505000205 | 18 | 306 | 1.6 | 12.9 | 0.00 | 0.00 | 0.00 | 50 | 1013.7 |
| 20260504235705 | 18 | 304 | 0.0 | 12.9 | 0.00 | 0.00 | 0.00 | 51 | 1013.8 |
| 20260504235203 | 18 | 342 | 0.0 | 8.0 | 0.00 | 0.00 | 0.00 | 52 | 1013.8 |
| 20260504234701 | 18 | 311 | 0.0 | 9.7 | 0.00 | 0.00 | 0.00 | 51 | 1013.8 |